period_start,C,m1,H,J0,J1,J2,J3,J4,J5,JA,JB,JC,JD,JJ,JK,JN,#
2015-02-24 00:01:46,0.30,4.65,0.00,21.59,27.27,29.35,4.87,28.22,1022.69,2028.00,1970.79,2224.33,2413.91,349.94,351.37,19.25,0000 0000 0000 0000 000000
2015-02-24 00:06:47,0.30,4.66,0.00,21.52,27.26,29.24,4.79,28.07,1022.60,2028.01,1968.88,2222.80,2412.44,350.60,352.13,19.28,0000 0000 0000 0000 000000
2015-02-24 00:11:48,0.32,4.67,0.00,21.57,27.25,29.22,4.82,28.06,1022.57,2028.02,1966.93,2221.38,2410.81,349.84,351.22,19.31,0000 0000 0000 0000 000000
2015-02-24 00:16:50,0.30,4.68,0.00,21.60,27.25,29.28,4.84,28.15,1022.57,2028.04,1964.86,2219.84,2409.38,349.74,351.15,19.34,0000 0000 0000 0000 000000
2015-02-24 00:21:51,0.29,4.69,0.00,21.55,27.25,29.21,4.82,28.10,1022.63,2028.06,1963.13,2218.45,2407.72,349.43,350.76,19.36,0000 0000 0000 0000 000000
2015-02-24 00:26:52,0.28,4.70,0.00,21.56,27.25,29.20,4.86,28.23,1022.55,2028.08,1961.46,2216.94,2406.11,349.94,351.39,19.39,0000 0000 0000 0000 000000
2015-02-24 00:31:53,0.31,4.71,0.00,21.61,27.23,29.28,4.82,28.15,1022.80,2028.04,1959.60,2215.54,2404.51,350.15,351.60,19.42,0000 0000 0000 0000 000000
2015-02-24 00:36:55,0.25,4.72,0.00,21.60,27.22,29.29,4.86,28.23,1022.78,2028.05,1957.94,2214.17,2402.93,349.95,351.52,19.45,0000 0000 0000 0000 000000
2015-02-24 00:41:56,0.26,4.72,0.00,21.56,27.22,29.33,4.85,28.26,1022.58,2028.05,1956.37,2212.89,2401.48,350.45,351.68,19.48,0000 0000 0000 0000 000000
2015-02-24 00:46:58,0.27,4.73,0.00,21.58,27.22,29.30,4.79,28.10,1022.65,2028.06,1954.84,2211.64,2400.17,350.08,351.38,19.51,0000 0000 0000 0000 000000
2015-02-24 00:51:59,0.24,4.74,0.00,21.54,27.22,29.31,4.83,28.09,1022.66,2028.02,1953.36,2210.43,2398.71,349.99,351.45,19.54,0000 0000 0000 0000 000000
2015-02-24 00:57:00,0.26,4.75,0.00,21.60,27.22,29.31,4.84,27.92,1022.51,2028.03,1951.59,2209.12,2397.34,349.99,351.44,19.57,0000 0000 0000 0000 000000
2015-02-24 01:02:02,0.29,4.76,0.00,21.59,27.22,29.27,4.89,28.06,1022.51,2028.04,1949.73,2207.78,2395.95,350.36,351.64,19.60,0000 0000 0000 0000 000000
2015-02-24 01:07:03,0.30,4.76,0.00,21.55,27.22,29.24,4.82,28.14,1022.62,2028.06,1947.93,2206.39,2394.50,349.78,351.24,19.63,0000 0000 0000 0000 000000
2015-02-24 01:12:04,0.28,4.77,0.00,21.57,27.22,29.31,4.83,28.23,1022.52,2028.04,1946.09,2204.95,2392.98,349.79,351.20,19.66,0000 0000 0000 0000 000000
2015-02-24 01:17:05,0.30,4.78,0.00,21.57,27.22,29.32,4.87,28.10,1022.49,2028.03,1944.49,2203.57,2391.38,350.43,351.55,19.69,0000 0000 0000 0000 000000
2015-02-24 01:22:06,0.31,4.79,0.00,21.52,27.22,29.28,4.78,28.14,1022.55,2028.03,1942.44,2202.11,2389.89,349.77,351.40,19.72,0000 0000 0000 0000 000000
2015-02-24 01:27:08,0.32,4.80,0.00,21.51,27.22,29.24,4.84,28.20,1022.59,2028.09,1940.65,2200.67,2388.43,350.07,351.58,19.75,0000 0000 0000 0000 000000
2015-02-24 01:32:09,0.29,4.81,0.00,21.57,27.22,29.28,4.90,28.19,1022.58,2028.08,1938.85,2199.32,2386.81,350.50,351.67,19.78,0000 0000 0000 0000 000000
2015-02-24 01:37:10,0.32,4.82,0.00,21.59,27.22,29.31,4.84,28.35,1022.54,2028.10,1936.88,2197.79,2385.32,350.23,351.69,19.80,0000 0000 0000 0000 000000
2015-02-24 01:42:11,0.30,4.83,0.00,21.58,27.22,29.31,4.89,28.32,1022.49,2028.03,1934.87,2196.34,2383.67,350.32,351.50,19.83,0000 0000 0000 0000 000000
2015-02-24 01:47:13,0.30,4.84,0.00,21.54,27.22,29.31,4.87,28.17,1022.50,2028.08,1933.01,2194.85,2382.14,350.15,351.68,19.86,0000 0000 0000 0000 000000
2015-02-24 01:52:14,0.34,4.85,0.00,21.55,27.22,29.25,4.81,28.25,1022.51,2028.22,1931.10,2193.42,2380.67,349.65,351.07,19.89,0000 0000 0000 0000 000000
2015-02-24 01:57:16,0.28,4.85,0.00,21.57,27.22,29.16,4.81,28.27,1022.49,2028.15,1929.42,2191.96,2379.03,349.74,351.03,19.92,0000 0000 0000 0000 000000
2015-02-24 02:02:17,0.27,4.86,0.00,21.58,27.22,29.24,4.79,28.25,1022.49,2028.11,1927.95,2190.65,2377.39,349.19,350.58,19.95,0000 0000 0000 0000 000000
2015-02-24 02:07:18,0.30,4.87,0.00,21.57,27.22,29.31,4.86,28.25,1022.48,2028.07,1926.10,2189.24,2375.81,350.03,351.34,19.98,0000 0000 0000 0000 000000
2015-02-24 02:12:19,0.35,4.88,0.00,21.63,27.22,29.24,4.81,28.22,1022.48,2028.14,1923.95,2187.70,2374.41,349.90,351.25,20.01,0000 0000 0000 0000 000000
2015-02-24 02:17:20,0.29,4.89,0.00,21.65,27.22,29.24,4.84,28.19,1022.49,2028.09,1922.07,2186.24,2372.72,350.26,351.55,20.04,0000 0000 0000 0000 000000
2015-02-24 02:22:22,0.29,4.90,0.00,21.58,27.22,29.26,4.82,28.16,1022.48,2028.12,1920.50,2184.80,2371.20,349.63,351.01,20.07,0000 0000 0000 0000 000000
2015-02-24 02:27:23,0.28,4.91,0.00,21.55,27.22,29.25,4.92,28.17,1022.49,2028.07,1918.87,2183.47,2369.56,350.17,351.47,20.10,0000 0000 0000 0000 000000
2015-02-24 02:32:24,0.31,4.92,0.00,21.59,27.22,29.28,4.84,28.14,1022.49,2028.05,1916.97,2181.95,2367.99,349.88,351.16,20.13,0000 0000 0000 0000 000000
2015-02-24 02:37:26,0.31,4.93,0.00,21.59,27.22,29.26,4.87,28.14,1022.50,2028.08,1915.13,2180.56,2366.72,349.96,351.39,20.16,0000 0000 0000 0000 000000
2015-02-24 02:42:27,0.31,4.94,0.00,21.57,27.22,29.19,4.90,28.38,1022.55,2028.04,1913.03,2179.05,2365.21,350.03,351.40,20.19,0000 0000 0000 0000 000000
2015-02-24 02:47:28,0.31,4.94,0.00,21.61,27.22,29.12,4.85,28.35,1022.51,2028.05,1911.21,2177.60,2363.64,349.63,350.87,20.21,0000 0000 0000 0000 000000
2015-02-24 02:52:29,0.28,4.95,0.00,21.65,27.23,29.19,4.90,28.32,1022.49,2028.05,1909.62,2176.19,2361.95,350.51,351.59,20.24,0000 0000 0000 0000 000000
2015-02-24 02:57:30,0.31,4.96,0.00,21.62,27.24,29.24,4.87,28.20,1022.49,2028.03,1907.80,2174.80,2360.38,350.07,351.35,20.27,0000 0000 0000 0000 000000
2015-02-24 03:02:32,0.31,4.97,0.00,21.63,27.24,29.27,4.88,28.25,1022.50,2028.02,1905.97,2173.41,2358.77,349.83,351.07,20.30,0000 0000 0000 0000 000000
2015-02-24 03:07:33,0.33,4.98,0.00,21.66,27.25,29.27,4.86,28.13,1022.49,2028.00,1903.91,2171.84,2357.22,349.60,350.86,20.33,0000 0000 0000 0000 000000
2015-02-24 03:12:34,0.31,4.99,0.00,21.66,27.25,29.27,4.83,28.10,1022.48,2028.01,1902.03,2170.45,2355.65,349.71,351.02,20.36,0000 0000 0000 0000 000000
2015-02-24 03:17:36,0.27,5.00,0.00,21.60,27.25,29.28,4.96,28.18,1022.48,2028.00,1900.46,2169.02,2354.05,350.52,351.80,20.39,0000 0000 0000 0000 000000
2015-02-24 03:22:37,0.33,5.01,0.00,21.62,27.25,29.29,4.89,28.18,1022.49,2028.01,1898.72,2167.68,2352.54,349.61,350.97,20.42,0000 0000 0000 0000 000000
2015-02-24 03:27:38,0.28,5.02,0.00,21.62,27.25,29.32,4.82,28.04,1022.49,2028.00,1896.95,2166.31,2351.01,349.32,350.52,20.45,0000 0000 0000 0000 000000
2015-02-24 03:32:39,0.31,5.03,0.00,21.65,27.26,29.30,4.84,28.04,1022.48,2028.00,1895.12,2164.80,2349.53,350.42,351.49,20.48,0000 0000 0000 0000 000000
2015-02-24 03:37:40,0.28,5.03,0.00,21.65,27.27,29.37,4.89,28.02,1022.48,2028.01,1893.51,2163.55,2347.99,350.13,351.32,20.51,0000 0000 0000 0000 000000
2015-02-24 03:42:42,0.31,5.04,0.00,21.65,27.27,29.33,4.89,28.07,1022.48,2028.00,1891.64,2162.05,2346.42,350.11,351.41,20.54,0000 0000 0000 0000 000000
2015-02-24 03:47:43,0.33,5.05,0.00,21.70,27.27,29.32,4.80,27.92,1022.47,2028.00,1889.80,2160.62,2344.89,349.81,351.04,20.57,0000 0000 0000 0000 000000
2015-02-24 03:52:44,0.29,5.06,0.00,21.72,27.27,29.33,4.85,28.04,1022.48,2028.00,1887.95,2159.20,2343.41,349.76,351.06,20.60,0000 0000 0000 0000 000000
2015-02-24 03:57:46,0.34,5.07,0.00,21.71,27.28,29.37,4.81,28.13,1022.48,2028.00,1886.05,2157.76,2341.83,349.71,350.97,20.62,0000 0000 0000 0000 000000
2015-02-24 04:02:47,0.28,5.08,0.00,21.68,27.29,29.33,4.90,28.07,1022.48,2028.00,1884.22,2156.42,2340.39,350.30,351.41,20.65,0000 0000 0000 0000 000000
2015-02-24 04:07:48,0.31,5.09,0.00,21.74,27.30,29.36,4.77,27.96,1022.48,2028.00,1882.46,2154.89,2338.77,350.08,351.48,20.68,0000 0000 0000 0000 000000
2015-02-24 04:12:50,0.30,5.10,0.00,21.78,27.30,29.44,4.91,28.11,1022.48,2028.00,1880.74,2153.54,2337.25,350.87,352.05,20.71,0000 0000 0000 0000 000000
2015-02-24 04:17:51,0.30,5.11,0.00,21.78,27.30,29.37,4.82,27.98,1022.48,2028.00,1879.01,2152.16,2335.70,349.93,351.04,20.74,0000 0000 0000 0000 000000
2015-02-24 04:22:52,0.32,5.12,0.00,21.77,27.32,29.33,4.78,28.05,1022.48,2028.00,1877.13,2150.66,2334.12,349.39,350.78,20.77,0000 0000 0000 0000 000000
2015-02-24 04:27:53,0.29,5.12,0.00,21.81,27.32,29.37,4.86,27.95,1022.48,2028.00,1875.54,2149.37,2332.57,350.00,350.95,20.80,0000 0000 0000 0000 000000
2015-02-24 04:32:54,0.31,5.13,0.00,21.87,27.33,29.37,4.89,28.08,1022.48,2027.99,1873.78,2147.89,2331.01,349.92,351.00,20.83,0000 0000 0000 0000 000000
2015-02-24 04:37:55,0.31,5.14,0.00,21.92,27.35,29.44,4.83,28.03,1022.48,2027.98,1871.98,2146.47,2329.46,349.93,350.83,20.86,0000 0000 0000 0000 000000
2015-02-24 04:42:57,0.29,5.15,0.00,21.95,27.35,29.50,4.81,28.23,1022.48,2027.95,1870.23,2145.02,2327.84,349.68,350.68,20.89,0000 0000 0000 0000 000000
2015-02-24 04:47:58,0.29,5.16,0.00,21.94,27.36,29.57,4.80,28.04,1022.48,2027.88,1868.49,2143.62,2326.33,350.24,351.25,20.92,0000 0000 0000 0000 000000
2015-02-24 04:52:59,0.28,5.17,0.00,21.98,27.37,29.59,4.98,28.17,1022.48,2027.68,1866.77,2142.20,2324.75,350.60,351.50,20.95,0000 0000 0000 0000 000000
2015-02-24 04:58:00,0.25,5.18,0.00,21.97,27.40,29.58,4.88,28.16,1022.48,2027.34,1864.90,2140.76,2323.25,350.42,351.04,20.98,0000 0000 0000 0000 000000
2015-02-24 05:03:02,0.31,5.19,0.00,21.96,27.40,29.54,4.83,28.20,1022.48,2027.37,1863.10,2139.33,2321.75,349.80,350.64,21.01,0000 0000 0000 0000 000000
2015-02-24 05:08:03,0.27,5.19,0.00,22.00,27.42,29.54,4.89,28.29,1022.48,2027.26,1861.38,2137.87,2320.17,350.14,351.02,21.03,0000 0000 0000 0000 000000
2015-02-24 05:13:04,0.30,5.20,0.00,22.00,27.43,29.58,4.89,28.21,1022.48,2027.11,1859.60,2136.52,2318.66,349.97,350.87,21.06,0000 0000 0000 0000 000000
2015-02-24 05:18:06,0.30,5.21,0.00,22.01,27.45,29.55,4.92,28.18,1022.48,2027.04,1857.81,2135.08,2317.09,349.91,351.01,21.09,0000 0000 0000 0000 000000
2015-02-24 05:23:07,0.31,5.22,0.00,22.01,27.45,29.58,4.86,28.15,1022.48,2027.04,1856.06,2133.70,2315.61,349.69,350.59,21.12,0000 0000 0000 0000 000000
2015-02-24 05:28:08,0.30,5.23,0.00,22.15,27.47,29.62,4.83,28.14,1022.48,2027.01,1854.32,2132.22,2314.02,349.71,350.41,21.15,0000 0000 0000 0000 000000
2015-02-24 05:33:09,0.32,5.24,0.00,22.75,27.48,30.04,4.83,28.22,1022.48,2027.03,1852.58,2130.79,2312.59,350.18,350.18,21.18,0000 0000 0000 0000 000000
2015-02-24 05:38:11,0.31,5.25,0.00,22.83,27.50,30.40,4.84,28.18,1022.48,2027.01,1850.78,2129.41,2310.99,350.04,350.09,21.21,0000 0000 0000 0000 000000
2015-02-24 05:43:12,0.32,5.26,0.00,22.84,27.50,30.52,4.87,28.12,1022.48,2027.01,1848.92,2127.93,2309.47,350.56,350.34,21.24,0000 0000 0000 0000 000000
2015-02-24 05:48:14,0.31,5.27,0.00,22.40,27.50,30.39,4.89,28.26,1022.48,2027.02,1847.27,2126.57,2307.97,350.69,351.09,21.27,0000 0000 0000 0000 000000
2015-02-24 05:53:15,0.29,5.28,0.00,22.12,27.50,30.11,4.83,28.16,1022.48,2027.01,1845.48,2125.22,2306.48,349.71,350.33,21.30,0000 0000 0000 0000 000000
2015-02-24 05:58:16,0.33,5.29,0.00,22.01,27.50,29.98,4.81,28.17,1022.47,2027.00,1843.74,2123.80,2304.92,350.10,351.11,21.33,0000 0000 0000 0000 000000
2015-02-24 06:03:18,0.30,5.30,0.00,21.98,27.50,29.86,4.82,28.15,1022.47,2027.00,1841.95,2122.42,2303.46,349.52,350.18,21.36,0000 0000 0000 0000 000000
2015-02-24 06:08:19,0.30,5.30,0.00,21.94,27.50,29.72,4.91,28.38,1022.46,2027.00,1840.22,2120.98,2302.00,350.36,351.30,21.39,0000 0000 0000 0000 000000
2015-02-24 06:13:20,0.33,5.31,0.00,21.95,27.50,29.66,4.83,28.38,1022.41,2027.00,1838.41,2119.63,2300.53,349.30,350.25,21.42,0000 0000 0000 0000 000000
2015-02-24 06:18:22,0.32,5.32,0.00,21.96,27.50,29.64,4.84,28.19,1022.39,2027.00,1836.57,2118.19,2298.92,349.69,350.56,21.44,0000 0000 0000 0000 000000
2015-02-24 06:23:23,0.33,5.33,0.00,21.91,27.50,29.58,4.82,28.23,1022.42,2027.00,1834.73,2116.72,2297.45,349.86,350.87,21.47,0000 0000 0000 0000 000000
2015-02-24 06:28:24,0.29,5.34,0.00,21.88,27.50,29.55,4.83,28.29,1022.44,2027.00,1832.98,2115.42,2295.91,350.16,351.30,21.50,0000 0000 0000 0000 000000
2015-02-24 06:33:25,0.29,5.35,0.00,21.98,27.50,29.58,4.83,28.07,1022.47,2027.00,1831.33,2114.01,2294.46,349.82,350.83,21.53,0000 0000 0000 0000 000000
2015-02-24 06:38:27,0.35,5.36,0.00,21.98,27.50,29.58,4.87,28.27,1022.46,2027.00,1829.52,2112.61,2292.86,350.38,351.11,21.56,0000 0000 0000 0000 000000
2015-02-24 06:43:28,0.31,5.37,0.00,21.97,27.50,29.52,4.93,28.28,1022.47,2026.99,1827.57,2111.20,2291.32,350.47,351.17,21.59,0000 0000 0000 0000 000000
2015-02-24 06:48:29,0.32,5.38,0.00,21.98,27.50,29.53,4.86,28.32,1022.47,2026.99,1825.77,2109.89,2289.82,350.06,350.95,21.62,0000 0000 0000 0000 000000
2015-02-24 06:53:31,0.29,5.39,0.00,22.01,27.50,29.54,4.91,28.25,1022.47,2026.99,1824.13,2108.57,2288.34,350.13,350.87,21.65,0000 0000 0000 0000 000000
2015-02-24 06:58:32,0.31,5.40,0.00,22.03,27.51,29.51,4.86,28.22,1022.48,2026.99,1822.38,2107.15,2286.80,350.24,350.97,21.68,0000 0000 0000 0000 000000
2015-02-24 07:03:33,0.33,5.41,0.00,21.99,27.52,29.48,4.84,28.18,1022.48,2026.99,1820.62,2105.70,2285.27,349.81,350.70,21.71,0000 0000 0000 0000 000000
2015-02-24 07:08:34,0.32,5.42,0.00,22.33,27.52,29.68,4.85,28.28,1022.48,2026.99,1818.81,2104.32,2283.68,350.06,350.54,21.74,0000 0000 0000 0000 000000
2015-02-24 07:13:36,0.33,5.43,0.00,22.87,27.52,30.23,4.79,28.18,1022.48,2026.99,1817.03,2102.83,2282.16,349.79,350.02,21.77,0000 0000 0000 0000 000000
2015-02-24 07:18:37,0.30,5.43,0.00,22.84,27.53,30.37,4.78,28.10,1022.48,2026.99,1815.34,2101.53,2280.66,349.79,349.72,21.80,0000 0000 0000 0000 000000
2015-02-24 07:23:38,0.29,5.44,0.00,22.82,27.53,30.46,4.85,28.11,1022.48,2026.99,1813.62,2100.21,2279.24,350.24,349.96,21.83,0000 0000 0000 0000 000000
2015-02-24 07:28:40,0.34,5.45,0.00,22.44,27.53,30.43,4.81,28.15,1022.48,2026.99,1811.88,2098.82,2277.75,349.33,349.67,21.85,0000 0000 0000 0000 000000
2015-02-24 07:33:41,0.28,5.46,0.00,22.19,27.53,30.21,4.87,28.15,1022.48,2026.99,1810.36,2097.49,2276.23,349.82,350.44,21.88,0000 0000 0000 0000 000000
2015-02-24 07:38:42,0.31,5.47,0.00,22.05,27.52,30.05,4.93,28.32,1022.48,2026.99,1808.60,2096.11,2274.71,350.74,351.47,21.91,0000 0000 0000 0000 000000
2015-02-24 07:43:43,0.34,5.48,0.00,22.00,27.52,29.94,4.86,28.24,1022.47,2026.99,1806.72,2094.69,2273.18,349.77,350.65,21.94,0000 0000 0000 0000 000000
2015-02-24 07:48:45,0.28,5.49,0.00,21.98,27.52,29.82,4.87,28.22,1022.47,2026.99,1805.22,2093.41,2271.76,350.19,350.91,21.97,0000 0000 0000 0000 000000
2015-02-24 07:53:46,0.33,5.50,0.00,21.89,27.52,29.68,4.82,28.13,1022.47,2026.99,1803.38,2092.00,2270.24,349.56,350.51,22.00,0000 0000 0000 0000 000000
2015-02-24 07:58:47,0.35,5.51,0.00,21.90,27.50,29.61,4.87,28.23,1022.44,2026.99,1801.55,2090.55,2268.66,349.75,350.55,22.03,0000 0000 0000 0000 000000
2015-02-24 08:03:48,0.30,5.52,0.00,21.97,27.50,29.65,4.82,28.12,1022.44,2026.99,1799.88,2089.16,2267.07,349.71,350.65,22.06,0000 0000 0000 0000 000000
2015-02-24 08:08:50,0.33,5.53,0.00,21.94,27.50,29.62,4.84,28.14,1022.45,2026.99,1798.09,2087.79,2265.63,350.36,351.31,22.09,0000 0000 0000 0000 000000
2015-02-24 08:13:51,0.30,5.54,0.00,21.90,27.50,29.54,4.86,28.12,1022.45,2026.99,1796.48,2086.47,2264.25,350.00,351.19,22.12,0000 0000 0000 0000 000000
2015-02-24 08:18:53,0.31,5.55,0.00,21.95,27.50,29.57,4.91,28.09,1022.45,2026.99,1794.84,2085.16,2262.65,349.97,350.70,22.15,0000 0000 0000 0000 000000
2015-02-24 08:23:54,0.31,5.56,0.00,22.01,27.50,29.61,4.84,27.98,1022.47,2026.99,1793.17,2083.77,2261.20,350.18,350.92,22.18,0000 0000 0000 0000 000000
2015-02-24 08:28:55,0.33,5.56,0.00,21.99,27.50,29.52,4.89,28.20,1022.46,2026.98,1791.43,2082.42,2259.72,349.90,350.83,22.21,0000 0000 0000 0000 000000
2015-02-24 08:33:56,0.29,5.57,0.00,21.94,27.50,29.48,4.83,28.25,1022.42,2026.98,1789.78,2081.09,2258.28,349.28,350.24,22.24,0000 0000 0000 0000 000000
2015-02-24 08:38:57,0.35,5.58,0.00,21.95,27.50,29.46,4.92,28.18,1022.31,2026.95,1788.04,2079.65,2256.77,350.10,350.82,22.26,0000 0000 0000 0000 000000
2015-02-24 08:43:59,0.29,5.59,0.00,22.04,27.51,29.52,4.84,28.16,1022.35,2026.98,1786.24,2078.26,2255.36,350.12,350.84,22.29,0000 0000 0000 0000 000000
2015-02-24 08:49:00,0.30,5.60,0.00,22.19,27.52,29.60,4.83,28.09,1022.40,2026.98,1784.66,2076.95,2253.88,350.19,350.61,22.32,0000 0000 0000 0000 000000
2015-02-24 08:54:01,0.32,5.61,0.00,22.77,27.52,30.07,4.76,28.18,1022.44,2026.97,1783.05,2075.62,2252.41,349.35,349.39,22.35,0000 0000 0000 0000 000000
2015-02-24 08:59:03,0.29,5.62,0.00,22.83,27.52,30.25,4.83,28.12,1022.43,2026.94,1781.51,2074.27,2250.86,349.65,349.48,22.38,0000 0000 0000 0000 000000
2015-02-24 09:04:04,0.31,5.63,0.00,22.78,27.52,30.45,4.89,28.03,1022.47,2026.97,1779.91,2072.99,2249.48,350.43,350.48,22.41,0000 0000 0000 0000 000000
2015-02-24 09:09:06,0.33,5.64,0.00,22.34,27.52,30.22,4.85,28.09,1022.47,2026.98,1778.07,2071.69,2248.13,349.82,350.25,22.44,0000 0000 0000 0000 000000
2015-02-24 09:14:07,0.32,5.65,0.00,22.10,27.52,30.15,4.87,28.07,1022.46,2026.98,1776.28,2070.41,2246.76,350.49,351.06,22.47,0000 0000 0000 0000 000000
2015-02-24 09:19:08,0.33,5.66,0.00,21.98,27.52,29.86,4.81,28.33,1022.44,2026.98,1774.39,2068.93,2245.34,350.07,350.84,22.50,0000 0000 0000 0000 000000
2015-02-24 09:24:09,0.33,5.67,0.00,21.91,27.50,29.77,4.85,28.27,1022.40,2026.98,1772.77,2067.64,2243.79,349.95,350.87,22.53,0000 0000 0000 0000 000000
2015-02-24 09:29:11,0.28,5.68,0.00,21.93,27.50,29.71,4.81,28.23,1022.31,2026.98,1771.22,2066.31,2242.33,349.96,350.74,22.56,0000 0000 0000 0000 000000
2015-02-24 09:34:12,0.31,5.69,0.00,21.95,27.50,29.72,4.82,28.16,1022.43,2026.98,1769.72,2064.99,2240.79,350.01,350.93,22.59,0000 0000 0000 0000 000000
2015-02-24 09:39:13,0.32,5.69,0.00,21.87,27.50,29.66,4.85,28.24,1022.43,2026.99,1768.12,2063.72,2239.47,349.44,350.47,22.62,0000 0000 0000 0000 000000
2015-02-24 09:44:15,0.29,5.70,0.00,21.84,27.48,29.52,4.86,28.13,1022.39,2026.97,1766.25,2062.42,2238.21,350.22,351.37,22.65,0000 0000 0000 0000 000000
2015-02-24 09:49:16,0.33,5.71,0.00,21.90,27.47,29.46,4.82,28.26,1022.27,2026.98,1764.43,2061.08,2236.82,349.65,350.66,22.67,0000 0000 0000 0000 000000
2015-02-24 09:54:17,0.33,5.72,0.00,21.92,27.47,29.42,4.86,28.27,1022.20,2026.99,1762.75,2059.73,2235.43,350.07,351.04,22.70,0000 0000 0000 0000 000000
2015-02-24 09:59:18,0.29,5.73,0.00,21.89,27.47,29.41,4.80,28.08,1022.21,2026.98,1761.31,2058.44,2233.90,350.03,350.88,22.73,0000 0000 0000 0000 000000
2015-02-24 10:04:20,0.31,5.74,0.00,21.92,27.47,29.42,4.87,28.23,1022.24,2026.99,1759.65,2057.13,2232.57,350.02,350.82,22.76,0000 0000 0000 0000 000000
2015-02-24 10:09:21,0.30,5.75,0.00,21.99,27.47,29.44,4.93,28.22,1022.38,2026.98,1757.95,2055.86,2231.17,350.47,351.34,22.79,0000 0000 0000 0000 000000
2015-02-24 10:14:22,0.32,5.76,0.00,21.94,27.47,29.46,4.96,28.30,1022.45,2026.99,1756.46,2054.60,2229.70,350.54,351.43,22.82,0000 0000 0000 0000 000000
2015-02-24 10:19:24,0.32,5.77,0.00,21.93,27.47,29.50,4.88,28.23,1022.46,2026.99,1754.63,2053.28,2228.32,350.15,351.20,22.85,0000 0000 0000 0000 000000
2015-02-24 10:24:25,0.33,5.78,0.00,21.95,27.47,29.42,4.89,28.18,1022.41,2026.99,1752.91,2051.87,2226.83,350.05,350.92,22.88,0000 0000 0000 0000 000000
2015-02-24 10:29:26,0.30,5.79,0.00,21.89,27.47,29.45,4.81,28.02,1022.44,2026.98,1751.46,2050.56,2225.35,349.52,350.50,22.91,0000 0000 0000 0000 000000
2015-02-24 10:34:28,0.31,5.80,0.00,21.90,27.48,29.46,4.86,28.21,1022.14,2026.98,1749.85,2049.30,2223.83,349.78,350.61,22.94,0000 0000 0000 0000 000000
2015-02-24 10:39:29,0.35,5.81,0.00,21.88,27.48,29.45,4.80,28.25,1022.06,2026.98,1748.06,2047.80,2222.46,350.06,350.79,22.97,0000 0000 0000 0000 000000
2015-02-24 10:44:30,0.27,5.81,0.00,21.92,27.49,29.47,4.83,28.10,1022.00,2026.96,1746.53,2046.76,2220.90,349.50,350.51,23.00,0000 0000 0000 0000 000000
2015-02-24 10:49:32,0.33,5.82,0.00,21.93,27.49,29.50,4.95,28.07,1022.05,2026.97,1744.78,2045.56,2219.55,350.49,351.43,23.03,0000 0000 0000 0000 000000
2015-02-24 10:54:33,0.27,5.83,0.00,21.87,27.50,29.53,4.87,28.01,1022.01,2026.97,1743.24,2044.27,2218.09,350.49,351.43,23.06,0000 0000 0000 0000 000000
2015-02-24 10:59:34,0.36,5.84,0.00,21.92,27.50,29.53,4.83,27.99,1022.02,2026.96,1741.38,2042.82,2216.64,350.13,350.82,23.09,0000 0000 0000 0000 000000
2015-02-24 11:04:36,0.33,5.85,0.00,21.95,27.50,29.52,4.88,28.05,1022.01,2026.96,1739.58,2041.48,2215.24,350.23,350.89,23.11,0000 0000 0000 0000 000000
2015-02-24 11:09:37,0.30,5.86,0.00,21.94,27.50,29.50,4.82,28.09,1021.99,2026.95,1738.07,2040.21,2213.71,349.55,350.61,23.14,0000 0000 0000 0000 000000
2015-02-24 11:14:38,0.33,5.87,0.00,21.89,27.50,29.49,4.84,28.00,1021.99,2026.97,1736.47,2038.81,2212.28,350.08,350.82,23.17,0000 0000 0000 0000 000000
2015-02-24 11:19:40,0.33,5.88,0.00,21.86,27.50,29.41,4.85,27.96,1021.99,2026.96,1734.75,2037.53,2210.85,349.80,350.59,23.20,0000 0000 0000 0000 000000
2015-02-24 11:24:41,0.28,5.89,0.00,21.89,27.50,29.42,4.87,27.98,1021.99,2026.95,1733.07,2036.19,2209.48,350.18,350.96,23.23,0000 0000 0000 0000 000000
2015-02-24 11:29:42,0.32,5.90,0.00,21.91,27.50,29.43,4.79,27.95,1022.00,2026.92,1731.58,2034.84,2207.91,349.85,350.67,23.26,0000 0000 0000 0000 000000
2015-02-24 11:34:44,0.35,5.91,0.00,21.92,27.50,29.43,4.85,27.94,1022.00,2026.89,1729.84,2033.53,2206.45,349.52,350.33,23.29,0000 0000 0000 0000 000000
2015-02-24 11:39:44,0.28,5.92,0.00,21.88,27.50,29.45,4.92,28.09,1022.01,2026.82,1728.11,2032.21,2205.01,350.45,351.15,23.32,0000 0000 0000 0000 000000
2015-02-24 11:44:46,0.36,5.93,0.00,21.93,27.50,29.44,4.88,28.07,1021.99,2026.87,1726.55,2030.85,2203.63,350.12,350.72,23.35,0000 0000 0000 0000 000000
2015-02-24 11:49:47,0.29,5.94,0.00,21.96,27.50,29.41,4.86,28.07,1021.99,2026.93,1725.09,2029.58,2202.20,350.42,351.22,23.38,0000 0000 0000 0000 000000
2015-02-24 11:54:48,0.32,5.95,0.00,21.86,27.50,29.38,4.88,27.90,1021.99,2026.94,1723.49,2028.32,2200.67,350.56,351.47,23.41,0000 0000 0000 0000 000000
2015-02-24 11:59:49,0.30,5.96,0.00,21.88,27.50,29.44,4.86,28.02,1021.99,2026.89,1721.84,2026.94,2199.34,350.20,350.84,23.44,0000 0000 0000 0000 000000
2015-02-24 12:04:51,0.32,5.96,0.00,21.92,27.50,29.51,4.81,27.86,1021.99,2026.85,1720.25,2025.57,2197.81,349.74,350.73,23.47,0000 0000 0000 0000 000000
2015-02-24 12:09:52,0.31,5.97,0.00,21.83,27.50,29.48,4.89,28.07,1021.99,2026.89,1718.70,2024.37,2196.48,350.44,351.11,23.49,0000 0000 0000 0000 000000
2015-02-24 12:14:53,0.31,5.98,0.00,21.85,27.50,29.43,4.88,28.03,1021.96,2026.83,1716.99,2022.98,2194.96,349.88,350.81,23.52,0000 0000 0000 0000 000000
2015-02-24 12:19:54,0.35,5.99,0.00,21.90,27.50,29.51,4.85,28.05,1021.88,2026.80,1715.34,2021.65,2193.57,349.74,350.59,23.55,0000 0000 0000 0000 000000
2015-02-24 12:24:55,0.33,6.00,0.00,21.90,27.50,29.47,4.86,28.18,1021.94,2026.90,1713.60,2020.36,2192.15,349.87,350.57,23.58,0000 0000 0000 0000 000000
2015-02-24 12:29:56,0.30,6.01,0.00,21.80,27.50,29.37,4.90,28.02,1021.98,2026.85,1712.02,2018.97,2190.67,350.24,351.03,23.61,0000 0000 0000 0000 000000
2015-02-24 12:34:58,0.36,6.02,0.00,21.90,27.50,29.43,4.78,27.95,1021.98,2026.90,1710.22,2017.65,2189.32,349.72,350.50,23.64,0000 0000 0000 0000 000000
2015-02-24 12:39:59,0.33,6.03,0.00,21.83,27.49,29.32,4.79,28.32,1021.92,2026.94,1708.53,2016.35,2187.81,349.70,350.66,23.67,0000 0000 0000 0000 000000
2015-02-24 12:45:00,0.32,6.04,0.00,21.81,27.49,29.33,4.83,27.97,1021.89,2026.88,1706.85,2014.91,2186.34,349.95,350.72,23.70,0000 0000 0000 0000 000000
2015-02-24 12:50:01,0.35,6.05,0.00,21.82,27.49,29.35,4.88,27.95,1021.81,2026.87,1705.18,2013.52,2184.81,350.17,350.91,23.73,0000 0000 0000 0000 000000
2015-02-24 12:55:03,0.32,6.06,0.00,21.83,27.48,29.31,4.87,28.11,1021.66,2026.89,1703.46,2012.19,2183.47,350.13,351.03,23.76,0000 0000 0000 0000 000000
2015-02-24 13:00:04,0.34,6.07,0.00,21.82,27.47,29.26,4.84,27.98,1021.54,2026.92,1701.91,2010.82,2181.94,349.77,350.53,23.79,0000 0000 0000 0000 000000